Time,TemperatureF,DewpointF,PressureIn,WindDirection,WindDirectionDegrees,WindSpeedMPH,WindSpeedGustMPH,Humidity,HourlyPrecipIn,Conditions,Clouds,dailyrainin,SoftwareType,DateUTC
2013-06-10 00:02:00,73.6,49.7,25.48,East,90,12.5,13.9,43,0.00,,---,0.00,VWS V14.01,2013-06-10 05:02:00,
2013-06-10 00:07:00,73.4,49.6,25.48,SE,135,12.5,15.4,43,0.00,,---,0.00,VWS V14.01,2013-06-10 05:07:00,
2013-06-10 00:12:00,73.0,50.5,25.48,SSE,158,13.2,13.2,45,0.00,,---,0.00,VWS V14.01,2013-06-10 05:12:00,
2013-06-10 00:17:00,72.9,50.3,25.48,SE,135,7.8,12.5,45,0.00,,---,0.00,VWS V14.01,2013-06-10 05:17:00,
2013-06-10 00:22:00,72.7,50.7,25.48,SE,135,12.8,17.2,46,0.00,,---,0.00,VWS V14.01,2013-06-10 05:22:00,
2013-06-10 00:27:00,72.5,50.6,25.48,ESE,112,10.5,11.9,46,0.00,,---,0.00,VWS V14.01,2013-06-10 05:27:00,
2013-06-10 00:32:00,72.3,50.4,25.48,East,90,7.8,9.6,46,0.00,,---,0.00,VWS V14.01,2013-06-10 05:32:00,
2013-06-10 00:37:00,72.1,50.2,25.48,SE,135,12.5,12.5,46,0.00,,---,0.00,VWS V14.01,2013-06-10 05:37:00,
2013-06-10 00:42:00,72.0,50.7,25.48,East,90,8.7,8.7,47,0.00,,---,0.00,VWS V14.01,2013-06-10 05:42:00,
2013-06-10 00:47:00,72.0,50.7,25.51,SSE,158,11.9,11.9,47,0.00,,---,0.00,VWS V14.01,2013-06-10 05:47:00,
2013-06-10 00:52:00,71.8,50.5,25.51,SE,135,13.2,15.2,47,0.00,,---,0.00,VWS V14.01,2013-06-10 05:52:00,
2013-06-10 00:57:00,71.6,50.9,25.51,ESE,112,7.4,17.0,48,0.00,,---,0.00,VWS V14.01,2013-06-10 05:57:00,
2013-06-10 01:02:00,71.6,50.9,25.48,SSE,158,8.1,8.1,48,0.00,,---,0.00,VWS V14.01,2013-06-10 06:02:00,
2013-06-10 01:07:00,71.4,51.3,25.48,SSE,158,12.5,12.5,49,0.00,,---,0.00,VWS V14.01,2013-06-10 06:07:00,
2013-06-10 01:12:00,71.4,51.8,25.48,SSE,158,10.1,13.4,50,0.00,,---,0.00,VWS V14.01,2013-06-10 06:12:00,
2013-06-10 01:17:00,71.6,51.5,25.48,ESE,112,10.1,10.1,49,0.00,,---,0.00,VWS V14.01,2013-06-10 06:17:00,
2013-06-10 01:22:00,71.8,51.6,25.48,SE,135,13.2,13.6,49,0.00,,---,0.00,VWS V14.01,2013-06-10 06:22:00,
2013-06-10 01:27:00,71.6,50.9,25.48,South,180,8.7,9.8,48,0.00,,---,0.00,VWS V14.01,2013-06-10 06:27:00,
2013-06-10 01:32:00,71.4,50.7,25.48,SE,135,9.8,9.8,48,0.00,,---,0.00,VWS V14.01,2013-06-10 06:32:00,
2013-06-10 01:37:00,71.4,50.2,25.48,South,180,7.8,8.7,47,0.00,,---,0.00,VWS V14.01,2013-06-10 06:37:00,
2013-06-10 01:42:00,71.4,49.0,25.48,SSE,158,12.1,12.1,45,0.00,,---,0.00,VWS V14.01,2013-06-10 06:42:00,
2013-06-10 01:47:00,71.4,49.6,25.48,SSE,158,12.8,12.8,46,0.00,,---,0.00,VWS V14.01,2013-06-10 06:47:00,
2013-06-10 01:52:00,71.2,48.8,25.48,South,180,8.5,12.1,45,0.00,,---,0.00,VWS V14.01,2013-06-10 06:52:00,
2013-06-10 01:57:00,71.2,48.8,25.48,SSE,158,10.3,10.3,45,0.00,,---,0.00,VWS V14.01,2013-06-10 06:57:00,
2013-06-10 02:02:00,71.4,48.4,25.48,SSE,158,11.4,11.4,44,0.00,,---,0.00,VWS V14.01,2013-06-10 07:02:00,
2013-06-10 02:07:00,71.4,48.4,25.48,ESE,112,10.5,12.3,44,0.00,,---,0.00,VWS V14.01,2013-06-10 07:07:00,
2013-06-10 02:12:00,71.2,47.6,25.48,SE,135,7.6,7.6,43,0.00,,---,0.00,VWS V14.01,2013-06-10 07:12:00,
2013-06-10 02:17:00,71.1,46.8,25.48,SSE,158,9.0,9.0,42,0.00,,---,0.00,VWS V14.01,2013-06-10 07:17:00,
2013-06-10 02:22:00,71.1,46.2,25.48,SSE,158,8.5,9.6,41,0.00,,---,0.00,VWS V14.01,2013-06-10 07:22:00,
2013-06-10 02:27:00,70.9,45.4,25.48,ESE,112,7.8,8.7,40,0.00,,---,0.00,VWS V14.01,2013-06-10 07:27:00,
2013-06-10 02:32:00,71.1,45.5,25.48,SSE,158,4.9,7.4,40,0.00,,---,0.00,VWS V14.01,2013-06-10 07:32:00,
2013-06-10 02:37:00,71.1,44.2,25.48,ESE,112,8.1,8.1,38,0.00,,---,0.00,VWS V14.01,2013-06-10 07:37:00,
2013-06-10 02:42:00,71.4,45.2,25.48,ESE,112,7.8,12.3,39,0.00,,---,0.00,VWS V14.01,2013-06-10 07:42:00,
2013-06-10 02:47:00,71.6,46.7,25.48,ESE,112,7.8,9.4,41,0.00,,---,0.00,VWS V14.01,2013-06-10 07:47:00,
2013-06-10 02:52:00,71.2,47.6,25.48,SE,135,9.8,10.1,43,0.00,,---,0.00,VWS V14.01,2013-06-10 07:52:00,
2013-06-10 02:57:00,71.2,47.0,25.48,SE,135,9.8,10.3,42,0.00,,---,0.00,VWS V14.01,2013-06-10 07:57:00,
2013-06-10 03:02:00,70.9,46.0,25.48,ESE,112,10.3,10.3,41,0.00,,---,0.00,VWS V14.01,2013-06-10 08:02:00,
2013-06-10 03:07:00,71.2,47.0,25.48,ESE,112,7.4,7.4,42,0.00,,---,0.00,VWS V14.01,2013-06-10 08:07:00,
2013-06-10 03:12:00,71.1,46.8,25.48,SSE,158,8.5,8.5,42,0.00,,---,0.00,VWS V14.01,2013-06-10 08:12:00,
2013-06-10 03:17:00,70.7,46.5,25.48,SE,135,4.3,4.9,42,0.00,,---,0.00,VWS V14.01,2013-06-10 08:17:00,
2013-06-10 03:22:00,70.5,46.3,25.48,ESE,112,8.1,8.1,42,0.00,,---,0.00,VWS V14.01,2013-06-10 08:22:00,
2013-06-10 03:27:00,70.7,46.5,25.48,SSE,158,5.4,6.0,42,0.00,,---,0.00,VWS V14.01,2013-06-10 08:27:00,
2013-06-10 03:32:00,70.7,46.5,25.48,SE,135,3.1,3.1,42,0.00,,---,0.00,VWS V14.01,2013-06-10 08:32:00,
2013-06-10 03:37:00,70.3,46.2,25.48,SE,135,7.4,7.4,42,0.00,,---,0.00,VWS V14.01,2013-06-10 08:37:00,
2013-06-10 03:42:00,70.2,45.4,25.48,South,180,4.0,4.0,41,0.00,,---,0.00,VWS V14.01,2013-06-10 08:42:00,
2013-06-10 03:47:00,70.2,44.7,25.45,SSE,158,3.6,3.6,40,0.00,,---,0.00,VWS V14.01,2013-06-10 08:47:00,
2013-06-10 03:52:00,69.8,44.4,25.45,SE,135,6.7,6.7,40,0.00,,---,0.00,VWS V14.01,2013-06-10 08:52:00,
2013-06-10 03:57:00,69.6,44.2,25.45,SE,135,6.0,6.0,40,0.00,,---,0.00,VWS V14.01,2013-06-10 08:57:00,
2013-06-10 04:02:00,69.4,45.4,25.48,SSE,158,3.4,6.5,42,0.00,,---,0.00,VWS V14.01,2013-06-10 09:02:00,
2013-06-10 04:07:00,69.3,46.4,25.48,ESE,112,7.4,8.5,44,0.00,,---,0.00,VWS V14.01,2013-06-10 09:07:00,
2013-06-10 04:12:00,69.1,46.9,25.48,SE,135,3.8,6.3,45,0.00,,---,0.00,VWS V14.01,2013-06-10 09:12:00,
2013-06-10 04:17:00,69.1,47.5,25.45,SE,135,5.8,7.2,46,0.00,,---,0.00,VWS V14.01,2013-06-10 09:17:00,
2013-06-10 04:22:00,68.7,47.7,25.45,SE,135,2.5,3.8,47,0.00,,---,0.00,VWS V14.01,2013-06-10 09:22:00,
2013-06-10 04:27:00,68.4,47.4,25.45,ESE,112,2.2,2.2,47,0.00,,---,0.00,VWS V14.01,2013-06-10 09:27:00,
2013-06-10 04:32:00,68.2,47.2,25.45,ESE,112,3.6,3.6,47,0.00,,---,0.00,VWS V14.01,2013-06-10 09:32:00,
2013-06-10 04:37:00,68.0,47.6,25.45,ESE,112,5.8,5.8,48,0.00,,---,0.00,VWS V14.01,2013-06-10 09:37:00,
2013-06-10 04:42:00,68.2,47.2,25.45,SE,135,5.4,6.9,47,0.00,,---,0.00,VWS V14.01,2013-06-10 09:42:00,
2013-06-10 04:47:00,68.4,46.8,25.48,ESE,112,3.6,6.0,46,0.00,,---,0.00,VWS V14.01,2013-06-10 09:47:00,
2013-06-10 04:52:00,68.4,46.8,25.48,ESE,112,6.0,6.0,46,0.00,,---,0.00,VWS V14.01,2013-06-10 09:52:00,
2013-06-10 04:57:00,68.5,47.0,25.48,SSE,158,6.5,6.5,46,0.00,,---,0.00,VWS V14.01,2013-06-10 09:57:00,
2013-06-10 05:02:00,68.4,46.8,25.48,SE,135,3.8,3.8,46,0.00,,---,0.00,VWS V14.01,2013-06-10 10:02:00,
2013-06-10 05:07:00,68.5,47.0,25.48,SE,135,4.0,4.7,46,0.00,,---,0.00,VWS V14.01,2013-06-10 10:07:00,
2013-06-10 05:12:00,68.2,47.2,25.48,SSE,158,3.6,5.8,47,0.00,,---,0.00,VWS V14.01,2013-06-10 10:12:00,
2013-06-10 05:17:00,67.8,46.3,25.48,SE,135,2.7,3.6,46,0.00,,---,0.00,VWS V14.01,2013-06-10 10:17:00,
2013-06-10 05:22:00,67.6,47.3,25.48,SSE,158,6.3,6.3,48,0.00,,---,0.00,VWS V14.01,2013-06-10 10:22:00,
2013-06-10 05:27:00,67.6,47.3,25.48,South,180,6.5,6.5,48,0.00,,---,0.00,VWS V14.01,2013-06-10 10:27:00,
2013-06-10 05:32:00,67.8,46.9,25.48,SSE,158,8.7,8.7,47,0.00,,---,0.00,VWS V14.01,2013-06-10 10:32:00,
2013-06-10 05:37:00,68.0,47.6,25.48,ESE,112,5.6,8.1,48,0.00,,---,0.00,VWS V14.01,2013-06-10 10:37:00,
2013-06-10 05:42:00,68.2,47.2,25.48,East,90,3.8,3.8,47,0.00,,---,0.00,VWS V14.01,2013-06-10 10:42:00,
2013-06-10 05:48:00,67.6,46.7,25.48,ESE,112,1.1,1.1,47,0.00,,---,0.00,VWS V14.01,2013-06-10 10:48:00,
2013-06-10 05:53:00,67.3,46.9,25.48,SSW,202,2.5,3.4,48,0.00,,---,0.00,VWS V14.01,2013-06-10 10:53:00,
2013-06-10 05:57:00,67.5,48.2,25.48,ESE,112,4.9,5.8,50,0.00,,---,0.00,VWS V14.01,2013-06-10 10:57:00,
2013-06-10 06:03:00,67.1,47.9,25.48,ESE,112,3.6,3.8,50,0.00,,---,0.00,VWS V14.01,2013-06-10 11:03:00,
2013-06-10 06:08:00,66.9,48.2,25.48,SE,135,3.8,3.8,51,0.00,,---,0.00,VWS V14.01,2013-06-10 11:08:00,
2013-06-10 06:13:00,66.6,49.4,25.48,ESE,112,4.9,6.3,54,0.00,,---,0.00,VWS V14.01,2013-06-10 11:13:00,
2013-06-10 06:18:00,66.7,50.1,25.48,South,180,4.3,6.0,55,0.00,,---,0.00,VWS V14.01,2013-06-10 11:18:00,
2013-06-10 06:23:00,66.7,49.6,25.48,South,180,2.9,3.4,54,0.00,,---,0.00,VWS V14.01,2013-06-10 11:23:00,
2013-06-10 06:28:00,66.4,49.2,25.48,SW,225,2.0,2.0,54,0.00,,---,0.00,VWS V14.01,2013-06-10 11:28:00,
2013-06-10 06:33:00,66.6,52.7,25.48,SE,135,6.3,6.3,61,0.00,,---,0.00,VWS V14.01,2013-06-10 11:33:00,
2013-06-10 06:38:00,66.7,53.3,25.48,ESE,112,3.6,5.6,62,0.00,,---,0.00,VWS V14.01,2013-06-10 11:38:00,
2013-06-10 06:43:00,66.7,54.2,25.48,SSE,158,6.0,6.0,64,0.00,,---,0.00,VWS V14.01,2013-06-10 11:43:00,
2013-06-10 06:48:00,66.7,55.0,25.48,SSE,158,2.9,6.5,66,0.00,,---,0.00,VWS V14.01,2013-06-10 11:48:00,
2013-06-10 06:53:00,66.6,54.9,25.48,SE,135,2.5,7.8,66,0.00,,---,0.00,VWS V14.01,2013-06-10 11:53:00,
2013-06-10 06:58:00,66.6,55.7,25.48,ESE,112,5.6,5.6,68,0.00,,---,0.00,VWS V14.01,2013-06-10 11:58:00,
2013-06-10 07:03:00,66.7,56.3,25.48,ESE,112,12.3,12.3,69,0.00,,---,0.00,VWS V14.01,2013-06-10 12:03:00,
2013-06-10 07:08:00,67.3,56.8,25.48,SE,135,8.5,11.0,69,0.00,,---,0.00,VWS V14.01,2013-06-10 12:08:00,
2013-06-10 07:13:00,67.8,56.5,25.48,SSE,158,7.6,8.1,67,0.00,,---,0.00,VWS V14.01,2013-06-10 12:13:00,
2013-06-10 07:18:00,68.2,56.8,25.48,SSE,158,7.6,12.8,67,0.00,,---,0.00,VWS V14.01,2013-06-10 12:18:00,
2013-06-10 07:23:00,68.5,56.3,25.48,SSE,158,8.7,8.7,65,0.00,,---,0.00,VWS V14.01,2013-06-10 12:23:00,
2013-06-10 07:28:00,68.9,56.2,25.48,SSE,158,9.0,9.6,64,0.00,,---,0.00,VWS V14.01,2013-06-10 12:28:00,
2013-06-10 07:33:00,69.3,56.1,25.48,SE,135,8.1,12.8,63,0.00,,---,0.00,VWS V14.01,2013-06-10 12:33:00,
2013-06-10 07:38:00,69.6,56.5,25.48,SE,135,12.8,14.3,63,0.00,,---,0.00,VWS V14.01,2013-06-10 12:38:00,
2013-06-10 07:43:00,70.0,56.4,25.48,SSE,158,8.1,8.1,62,0.00,,---,0.00,VWS V14.01,2013-06-10 12:43:00,
2013-06-10 07:48:00,70.2,56.5,25.51,SSE,158,11.9,15.2,62,0.00,,---,0.00,VWS V14.01,2013-06-10 12:48:00,
2013-06-10 07:53:00,70.5,56.0,25.51,South,180,8.1,10.5,60,0.00,,---,0.00,VWS V14.01,2013-06-10 12:53:00,
2013-06-10 07:58:00,70.9,55.8,25.51,SSE,158,8.5,12.3,59,0.00,,---,0.00,VWS V14.01,2013-06-10 12:58:00,
2013-06-10 08:03:00,71.2,56.2,25.51,South,180,5.8,6.0,59,0.00,,---,0.00,VWS V14.01,2013-06-10 13:03:00,
2013-06-10 08:08:00,71.8,54.8,25.51,South,180,2.9,5.8,55,0.00,,---,0.00,VWS V14.01,2013-06-10 13:08:00,
2013-06-10 08:13:00,72.1,55.1,25.51,South,180,3.8,7.4,55,0.00,,---,0.00,VWS V14.01,2013-06-10 13:13:00,
2013-06-10 08:18:00,72.7,54.1,25.51,SSW,202,7.6,7.6,52,0.00,,---,0.00,VWS V14.01,2013-06-10 13:18:00,
2013-06-10 08:23:00,72.9,54.2,25.51,South,180,7.8,7.8,52,0.00,,---,0.00,VWS V14.01,2013-06-10 13:23:00,
2013-06-10 08:28:00,72.9,54.2,25.51,South,180,9.6,10.3,52,0.00,,---,0.00,VWS V14.01,2013-06-10 13:28:00,
2013-06-10 08:33:00,73.0,53.9,25.54,SW,225,3.8,6.3,51,0.00,,---,0.00,VWS V14.01,2013-06-10 13:33:00,
2013-06-10 08:38:00,73.4,53.7,25.54,South,180,5.6,5.6,50,0.00,,---,0.00,VWS V14.01,2013-06-10 13:38:00,
2013-06-10 08:43:00,74.5,53.5,25.54,SSE,158,9.4,9.4,48,0.00,,---,0.00,VWS V14.01,2013-06-10 13:43:00,
2013-06-10 08:48:00,74.8,53.3,25.54,South,180,6.9,6.9,47,0.00,,---,0.00,VWS V14.01,2013-06-10 13:48:00,
2013-06-10 08:53:00,75.7,53.5,25.54,ESE,112,5.4,5.4,46,0.00,,---,0.00,VWS V14.01,2013-06-10 13:53:00,
2013-06-10 08:58:00,77.0,52.8,25.54,South,180,3.4,4.9,43,0.00,,---,0.00,VWS V14.01,2013-06-10 13:58:00,
2013-06-10 09:03:00,77.7,52.2,25.54,SSE,158,3.4,3.4,41,0.00,,---,0.00,VWS V14.01,2013-06-10 14:03:00,
2013-06-10 09:08:00,78.3,49.9,25.54,SSE,158,5.6,5.6,37,0.00,,---,0.00,VWS V14.01,2013-06-10 14:08:00,
2013-06-10 09:13:00,77.5,50.0,25.54,SSW,202,4.3,4.3,38,0.00,,---,0.00,VWS V14.01,2013-06-10 14:13:00,
2013-06-10 09:18:00,77.7,47.9,25.54,SW,225,6.5,8.1,35,0.00,,---,0.00,VWS V14.01,2013-06-10 14:18:00,
2013-06-10 09:23:00,77.5,47.0,25.54,SSW,202,6.5,9.0,34,0.00,,---,0.00,VWS V14.01,2013-06-10 14:23:00,
2013-06-10 09:28:00,78.3,48.4,25.54,SW,225,4.0,5.8,35,0.00,,---,0.00,VWS V14.01,2013-06-10 14:28:00,
2013-06-10 09:33:00,79.9,49.0,25.54,South,180,4.3,6.0,34,0.00,,---,0.00,VWS V14.01,2013-06-10 14:33:00,
2013-06-10 09:38:00,80.6,48.9,25.54,SSE,158,6.3,7.4,33,0.00,,---,0.00,VWS V14.01,2013-06-10 14:38:00,
2013-06-10 09:43:00,80.6,48.0,25.54,SSE,158,10.7,10.7,32,0.00,,---,0.00,VWS V14.01,2013-06-10 14:43:00,
2013-06-10 09:48:00,80.6,48.0,25.54,SSE,158,6.3,9.6,32,0.00,,---,0.00,VWS V14.01,2013-06-10 14:48:00,
2013-06-10 09:53:00,80.6,47.2,25.54,SSE,158,9.0,9.6,31,0.00,,---,0.00,VWS V14.01,2013-06-10 14:53:00,
2013-06-10 09:58:00,80.4,47.9,25.54,SSE,158,7.6,7.6,32,0.00,,---,0.00,VWS V14.01,2013-06-10 14:58:00,
2013-06-10 10:03:00,81.9,49.1,25.54,SE,135,7.2,7.4,32,0.00,,---,0.00,VWS V14.01,2013-06-10 15:03:00,
2013-06-10 10:08:00,82.2,48.6,25.54,SSE,158,6.7,7.8,31,0.00,,---,0.00,VWS V14.01,2013-06-10 15:08:00,
2013-06-10 10:13:00,83.5,48.8,25.54,SSE,158,5.6,6.3,30,0.00,,---,0.00,VWS V14.01,2013-06-10 15:13:00,
2013-06-10 10:18:00,83.8,49.1,25.54,SE,135,8.5,8.5,30,0.00,,---,0.00,VWS V14.01,2013-06-10 15:18:00,
2013-06-10 10:23:00,84.7,49.0,25.54,SSE,158,11.0,12.5,29,0.00,,---,0.00,VWS V14.01,2013-06-10 15:23:00,
2013-06-10 10:28:00,84.6,47.9,25.54,SE,135,10.1,10.5,28,0.00,,---,0.00,VWS V14.01,2013-06-10 15:28:00,
2013-06-10 10:33:00,84.7,48.1,25.54,SE,135,10.5,10.5,28,0.00,,---,0.00,VWS V14.01,2013-06-10 15:33:00,
2013-06-10 10:38:00,85.5,47.7,25.54,ESE,112,8.7,8.7,27,0.00,,---,0.00,VWS V14.01,2013-06-10 15:38:00,
2013-06-10 10:43:00,85.3,46.5,25.54,SSE,158,10.5,12.1,26,0.00,,---,0.00,VWS V14.01,2013-06-10 15:43:00,
2013-06-10 10:48:00,86.0,47.2,25.54,SE,135,6.5,12.5,26,0.00,,---,0.00,VWS V14.01,2013-06-10 15:48:00,
2013-06-10 10:53:00,86.2,46.3,25.54,SE,135,8.1,8.1,25,0.00,,---,0.00,VWS V14.01,2013-06-10 15:53:00,
2013-06-10 10:58:00,86.2,45.2,25.54,ESE,112,11.0,12.3,24,0.00,,---,0.00,VWS V14.01,2013-06-10 15:58:00,
2013-06-10 11:03:00,86.0,43.9,25.54,ESE,112,5.6,8.7,23,0.00,,---,0.00,VWS V14.01,2013-06-10 16:03:00,
2013-06-10 11:08:00,87.1,43.7,25.54,ESE,112,7.8,7.8,22,0.00,,---,0.00,VWS V14.01,2013-06-10 16:08:00,
2013-06-10 11:13:00,87.4,44.0,25.54,ESE,112,10.3,10.3,22,0.00,,---,0.00,VWS V14.01,2013-06-10 16:13:00,
2013-06-10 11:18:00,87.3,43.8,25.54,SE,135,4.3,9.8,22,0.00,,---,0.00,VWS V14.01,2013-06-10 16:18:00,
2013-06-10 11:23:00,88.2,42.1,25.54,SSE,158,9.8,9.8,20,0.00,,---,0.00,VWS V14.01,2013-06-10 16:23:00,
2013-06-10 11:28:00,88.2,40.8,25.54,SSE,158,10.1,11.2,19,0.00,,---,0.00,VWS V14.01,2013-06-10 16:28:00,
2013-06-10 11:33:00,89.1,41.5,25.54,SSE,158,6.0,6.3,19,0.00,,---,0.00,VWS V14.01,2013-06-10 16:33:00,
2013-06-10 11:38:00,90.3,41.1,25.54,ESE,112,5.4,8.1,18,0.00,,---,0.00,VWS V14.01,2013-06-10 16:38:00,
2013-06-10 11:43:00,90.0,40.8,25.54,South,180,7.6,12.5,18,0.00,,---,0.00,VWS V14.01,2013-06-10 16:43:00,
2013-06-10 11:48:00,90.0,40.8,25.54,SSE,158,6.0,9.8,18,0.00,,---,0.00,VWS V14.01,2013-06-10 16:48:00,
2013-06-10 11:53:00,90.0,40.8,25.54,South,180,10.1,10.1,18,0.00,,---,0.00,VWS V14.01,2013-06-10 16:53:00,
2013-06-10 11:58:00,90.5,41.3,25.54,SSE,158,6.3,11.9,18,0.00,,---,0.00,VWS V14.01,2013-06-10 16:58:00,
2013-06-10 12:03:00,90.7,39.9,25.54,SSE,158,5.8,6.3,17,0.00,,---,0.00,VWS V14.01,2013-06-10 17:03:00,
2013-06-10 12:08:00,91.2,40.4,25.54,SSE,158,10.7,10.7,17,0.00,,---,0.00,VWS V14.01,2013-06-10 17:08:00,
2013-06-10 12:13:00,92.7,41.5,25.54,SE,135,6.3,7.6,17,0.00,,---,0.00,VWS V14.01,2013-06-10 17:13:00,
2013-06-10 12:18:00,93.0,41.8,25.54,SE,135,7.4,7.4,17,0.00,,---,0.00,VWS V14.01,2013-06-10 17:18:00,
2013-06-10 12:23:00,93.7,40.8,25.54,SE,135,3.6,4.7,16,0.00,,---,0.00,VWS V14.01,2013-06-10 17:23:00,
2013-06-10 12:28:00,92.8,41.7,25.54,SSW,202,5.8,7.6,17,0.00,,---,0.00,VWS V14.01,2013-06-10 17:28:00,
2013-06-10 12:33:00,91.6,40.7,25.51,SSW,202,6.9,7.4,17,0.00,,---,0.00,VWS V14.01,2013-06-10 17:33:00,
2013-06-10 12:38:00,92.8,41.7,25.51,South,180,3.4,5.8,17,0.00,,---,0.00,VWS V14.01,2013-06-10 17:38:00,
2013-06-10 12:43:00,93.9,37.5,25.51,ESE,112,3.1,4.0,14,0.00,,---,0.00,VWS V14.01,2013-06-10 17:43:00,
2013-06-10 12:48:00,96.6,39.7,25.51,SE,135,4.3,5.8,14,0.00,,---,0.00,VWS V14.01,2013-06-10 17:48:00,
2013-06-10 12:53:00,96.1,39.2,25.51,SE,135,8.7,8.7,14,0.00,,---,0.00,VWS V14.01,2013-06-10 17:53:00,
2013-06-10 12:58:00,94.8,32.2,25.51,ESE,112,10.1,12.1,11,0.00,,---,0.00,VWS V14.01,2013-06-10 17:58:00,
2013-06-10 13:03:00,96.6,33.6,25.51,ENE,68,4.3,5.4,11,0.00,,---,0.00,VWS V14.01,2013-06-10 18:03:00,
2013-06-10 13:08:00,95.5,38.8,25.51,SE,135,8.7,8.7,14,0.00,,---,0.00,VWS V14.01,2013-06-10 18:08:00,
2013-06-10 13:13:00,94.5,31.9,25.51,ESE,112,8.7,10.5,11,0.00,,---,0.00,VWS V14.01,2013-06-10 18:13:00,
2013-06-10 13:18:00,94.3,31.8,25.51,ESE,112,5.6,5.6,11,0.00,,---,0.00,VWS V14.01,2013-06-10 18:18:00,
2013-06-10 13:23:00,93.7,31.4,25.51,ESE,112,10.7,15.7,11,0.00,,---,0.00,VWS V14.01,2013-06-10 18:23:00,
2013-06-10 13:28:00,94.6,32.0,25.51,ESE,112,6.5,12.5,11,0.00,,---,0.00,VWS V14.01,2013-06-10 18:28:00,
2013-06-10 13:33:00,94.3,31.8,25.51,South,180,7.8,9.6,11,0.00,,---,0.00,VWS V14.01,2013-06-10 18:33:00,
2013-06-10 13:38:00,94.8,32.2,25.51,ESE,112,13.2,13.2,11,0.00,,---,0.00,VWS V14.01,2013-06-10 18:38:00,
2013-06-10 13:43:00,96.1,33.2,25.51,NNW,338,5.6,6.5,11,0.00,,---,0.00,VWS V14.01,2013-06-10 18:43:00,
2013-06-10 13:48:00,94.8,32.2,25.51,ENE,68,9.8,9.8,11,0.00,,---,0.00,VWS V14.01,2013-06-10 18:48:00,
2013-06-10 13:53:00,94.8,32.2,25.51,NE,45,3.8,3.8,11,0.00,,---,0.00,VWS V14.01,2013-06-10 18:53:00,
2013-06-10 13:58:00,99.3,33.2,25.51,North,0,1.3,3.1,10,0.00,,---,0.00,VWS V14.01,2013-06-10 18:58:00,
2013-06-10 14:03:00,99.3,33.2,25.51,ESE,112,6.0,6.3,10,0.00,,---,0.00,VWS V14.01,2013-06-10 19:03:00,
2013-06-10 14:08:00,98.2,34.8,25.51,SE,135,4.0,4.3,11,0.00,,---,0.00,VWS V14.01,2013-06-10 19:08:00,
2013-06-10 14:13:00,100.4,34.0,25.51,NW,315,3.1,5.6,10,0.00,,---,0.00,VWS V14.01,2013-06-10 19:13:00,
2013-06-10 14:18:00,98.8,32.8,25.51,NE,45,7.4,10.3,10,0.00,,---,0.00,VWS V14.01,2013-06-10 19:18:00,
2013-06-10 14:23:00,98.2,34.8,25.51,NE,45,3.8,7.2,11,0.00,,---,0.00,VWS V14.01,2013-06-10 19:23:00,
2013-06-10 14:28:00,98.6,32.7,25.51,ESE,112,4.3,5.6,10,0.00,,---,0.00,VWS V14.01,2013-06-10 19:28:00,
2013-06-10 14:33:00,98.2,34.8,25.48,South,180,3.1,10.5,11,0.00,,---,0.00,VWS V14.01,2013-06-10 19:33:00,
2013-06-10 14:38:00,98.4,34.9,25.48,ESE,112,4.0,4.0,11,0.00,,---,0.00,VWS V14.01,2013-06-10 19:38:00,
2013-06-10 14:43:00,96.8,33.7,25.48,South,180,6.3,6.3,11,0.00,,---,0.00,VWS V14.01,2013-06-10 19:43:00,
2013-06-10 14:48:00,97.3,34.1,25.48,ENE,68,10.1,10.7,11,0.00,,---,0.00,VWS V14.01,2013-06-10 19:48:00,
2013-06-10 14:53:00,95.4,32.6,25.48,SE,135,10.1,10.1,11,0.00,,---,0.00,VWS V14.01,2013-06-10 19:53:00,
2013-06-10 14:58:00,96.4,33.4,25.48,ESE,112,11.9,14.5,11,0.00,,---,0.00,VWS V14.01,2013-06-10 19:58:00,
2013-06-10 15:03:00,97.0,33.8,25.48,ENE,68,13.6,13.6,11,0.00,,---,0.00,VWS V14.01,2013-06-10 20:03:00,
2013-06-10 15:08:00,95.7,32.9,25.48,ENE,68,7.6,7.6,11,0.00,,---,0.00,VWS V14.01,2013-06-10 20:08:00,
2013-06-10 15:13:00,96.3,33.3,25.48,ESE,112,9.8,10.3,11,0.00,,---,0.00,VWS V14.01,2013-06-10 20:13:00,
2013-06-10 15:18:00,98.4,34.9,25.48,East,90,7.6,7.6,11,0.00,,---,0.00,VWS V14.01,2013-06-10 20:18:00,
2013-06-10 15:23:00,96.3,33.3,25.48,East,90,9.8,9.8,11,0.00,,---,0.00,VWS V14.01,2013-06-10 20:23:00,
2013-06-10 15:28:00,96.8,33.7,25.48,ESE,112,2.7,2.7,11,0.00,,---,0.00,VWS V14.01,2013-06-10 20:28:00,
2013-06-10 15:33:00,99.9,33.6,25.45,North,0,5.8,5.8,10,0.00,,---,0.00,VWS V14.01,2013-06-10 20:33:00,
2013-06-10 15:38:00,100.6,34.2,25.45,ESE,112,3.8,3.8,10,0.00,,---,0.00,VWS V14.01,2013-06-10 20:38:00,
2013-06-10 15:43:00,97.5,34.2,25.45,East,90,7.4,7.4,11,0.00,,---,0.00,VWS V14.01,2013-06-10 20:43:00,
2013-06-10 15:48:00,97.3,34.1,25.48,North,0,4.9,4.9,11,0.00,,---,0.00,VWS V14.01,2013-06-10 20:48:00,
2013-06-10 15:53:00,96.6,33.6,25.48,ENE,68,7.8,8.5,11,0.00,,---,0.00,VWS V14.01,2013-06-10 20:53:00,
2013-06-10 15:58:00,98.2,34.8,25.48,SE,135,2.9,2.9,11,0.00,,---,0.00,VWS V14.01,2013-06-10 20:58:00,
2013-06-10 16:03:00,99.1,33.1,25.48,ESE,112,8.7,8.7,10,0.00,,---,0.00,VWS V14.01,2013-06-10 21:03:00,
2013-06-10 16:08:00,99.0,33.0,25.48,ESE,112,4.9,4.9,10,0.00,,---,0.00,VWS V14.01,2013-06-10 21:08:00,
2013-06-10 16:13:00,99.3,33.2,25.48,ENE,68,7.2,7.2,10,0.00,,---,0.00,VWS V14.01,2013-06-10 21:13:00,
2013-06-10 16:18:00,99.9,33.6,25.48,NNE,22,6.0,6.0,10,0.00,,---,0.00,VWS V14.01,2013-06-10 21:18:00,
2013-06-10 16:23:00,99.3,33.2,25.48,NE,45,7.2,7.2,10,0.00,,---,0.00,VWS V14.01,2013-06-10 21:23:00,
2013-06-10 16:28:00,97.9,34.5,25.48,North,0,10.7,10.7,11,0.00,,---,0.00,VWS V14.01,2013-06-10 21:28:00,
2013-06-10 16:33:00,97.9,34.5,25.48,NE,45,6.0,10.5,11,0.00,,---,0.00,VWS V14.01,2013-06-10 21:33:00,
2013-06-10 16:38:00,96.3,33.3,25.48,ENE,68,7.8,10.5,11,0.00,,---,0.00,VWS V14.01,2013-06-10 21:38:00,
2013-06-10 16:43:00,97.5,34.2,25.48,NE,45,6.5,6.5,11,0.00,,---,0.00,VWS V14.01,2013-06-10 21:43:00,
2013-06-10 16:48:00,100.2,33.9,25.48,NE,45,6.0,6.5,10,0.00,,---,0.00,VWS V14.01,2013-06-10 21:48:00,
2013-06-10 16:53:00,97.5,34.2,25.48,NNE,22,5.4,5.4,11,0.00,,---,0.00,VWS V14.01,2013-06-10 21:53:00,
2013-06-10 16:58:00,96.6,33.6,25.48,ENE,68,10.5,10.5,11,0.00,,---,0.00,VWS V14.01,2013-06-10 21:58:00,
2013-06-10 17:03:00,96.4,33.4,25.48,ESE,112,11.0,11.0,11,0.00,,---,0.00,VWS V14.01,2013-06-10 22:03:00,
2013-06-10 17:08:00,95.9,33.0,25.48,ESE,112,6.0,7.4,11,0.00,,---,0.00,VWS V14.01,2013-06-10 22:08:00,
2013-06-10 17:13:00,96.6,33.6,25.48,East,90,6.0,9.2,11,0.00,,---,0.00,VWS V14.01,2013-06-10 22:13:00,
2013-06-10 17:18:00,97.3,34.1,25.48,North,0,6.0,6.0,11,0.00,,---,0.00,VWS V14.01,2013-06-10 22:18:00,
2013-06-10 17:23:00,96.4,33.4,25.48,East,90,8.5,12.1,11,0.00,,---,0.00,VWS V14.01,2013-06-10 22:23:00,
2013-06-10 17:28:00,96.4,33.4,25.48,East,90,2.0,2.0,11,0.00,,---,0.00,VWS V14.01,2013-06-10 22:28:00,
2013-06-10 17:33:00,98.2,34.8,25.48,ENE,68,4.3,7.2,11,0.00,,---,0.00,VWS V14.01,2013-06-10 22:33:00,
2013-06-10 17:38:00,99.3,33.2,25.48,NE,45,2.5,4.0,10,0.00,,---,0.00,VWS V14.01,2013-06-10 22:38:00,
2013-06-10 17:43:00,97.7,34.4,25.48,ESE,112,10.5,10.5,11,0.00,,---,0.00,VWS V14.01,2013-06-10 22:43:00,
2013-06-10 17:48:00,96.1,33.2,25.45,ESE,112,5.6,5.6,11,0.00,,---,0.00,VWS V14.01,2013-06-10 22:48:00,
2013-06-10 17:53:00,96.1,33.2,25.45,ENE,68,11.2,11.2,11,0.00,,---,0.00,VWS V14.01,2013-06-10 22:53:00,
2013-06-10 17:58:00,95.9,33.0,25.45,NE,45,10.7,11.0,11,0.00,,---,0.00,VWS V14.01,2013-06-10 22:58:00,
2013-06-10 18:03:00,95.0,32.3,25.42,North,0,3.1,3.1,11,0.00,,---,0.00,VWS V14.01,2013-06-10 23:03:00,
2013-06-10 18:08:00,94.3,31.8,25.42,East,90,9.8,11.0,11,0.00,,---,0.00,VWS V14.01,2013-06-10 23:08:00,
2013-06-10 18:13:00,94.3,31.8,25.42,East,90,8.1,9.8,11,0.00,,---,0.00,VWS V14.01,2013-06-10 23:13:00,
2013-06-10 18:18:00,94.3,31.8,25.42,ESE,112,7.8,7.8,11,0.00,,---,0.00,VWS V14.01,2013-06-10 23:18:00,
2013-06-10 18:23:00,93.4,31.1,25.42,ENE,68,12.8,13.2,11,0.00,,---,0.00,VWS V14.01,2013-06-10 23:23:00,
2013-06-10 18:28:00,93.2,31.0,25.42,East,90,7.2,7.6,11,0.00,,---,0.00,VWS V14.01,2013-06-10 23:28:00,
2013-06-10 18:33:00,92.7,32.7,25.42,East,90,13.4,13.4,12,0.00,,---,0.00,VWS V14.01,2013-06-10 23:33:00,
2013-06-10 18:38:00,92.3,32.4,25.42,ESE,112,9.0,10.3,12,0.00,,---,0.00,VWS V14.01,2013-06-10 23:38:00,
2013-06-10 18:43:00,91.4,31.7,25.42,East,90,18.1,18.1,12,0.00,,---,0.00,VWS V14.01,2013-06-10 23:43:00,
2013-06-10 18:48:00,91.8,32.0,25.39,ESE,112,10.3,15.4,12,0.00,,---,0.00,VWS V14.01,2013-06-10 23:48:00,
2013-06-10 18:53:00,91.6,31.9,25.39,East,90,10.7,14.1,12,0.00,,---,0.00,VWS V14.01,2013-06-10 23:53:00,
2013-06-10 18:58:00,91.4,31.7,25.39,ESE,112,11.4,19.5,12,0.00,,---,0.00,VWS V14.01,2013-06-10 23:58:00,
2013-06-10 19:03:00,91.6,31.9,25.42,ENE,68,12.8,12.8,12,0.00,,---,0.00,VWS V14.01,2013-06-11 00:03:00,
2013-06-10 19:08:00,91.0,31.4,25.42,ESE,112,10.1,12.5,12,0.00,,---,0.00,VWS V14.01,2013-06-11 00:08:00,
2013-06-10 19:13:00,90.9,31.3,25.42,ESE,112,12.8,12.8,12,0.00,,---,0.00,VWS V14.01,2013-06-11 00:13:00,
2013-06-10 19:18:00,90.3,30.9,25.42,East,90,8.5,13.2,12,0.00,,---,0.00,VWS V14.01,2013-06-11 00:18:00,
2013-06-10 19:23:00,89.8,30.5,25.42,East,90,14.3,19.9,12,0.00,,---,0.00,VWS V14.01,2013-06-11 00:23:00,
2013-06-10 19:28:00,89.6,30.3,25.42,East,90,13.9,13.9,12,0.00,,---,0.00,VWS V14.01,2013-06-11 00:28:00,
2013-06-10 19:33:00,88.9,31.7,25.42,East,90,12.1,14.1,13,0.00,,---,0.00,VWS V14.01,2013-06-11 00:33:00,
2013-06-10 19:38:00,88.3,31.3,25.42,ESE,112,13.9,17.0,13,0.00,,---,0.00,VWS V14.01,2013-06-11 00:38:00,
2013-06-10 19:43:00,88.2,31.2,25.42,ESE,112,11.9,19.9,13,0.00,,---,0.00,VWS V14.01,2013-06-11 00:43:00,
2013-06-10 19:48:00,88.0,31.0,25.42,East,90,13.4,15.7,13,0.00,,---,0.00,VWS V14.01,2013-06-11 00:48:00,
2013-06-10 19:53:00,87.6,30.8,25.42,ESE,112,13.0,17.7,13,0.00,,---,0.00,VWS V14.01,2013-06-11 00:53:00,
2013-06-10 19:58:00,87.4,30.6,25.42,ESE,112,13.2,13.2,13,0.00,,---,0.00,VWS V14.01,2013-06-11 00:58:00,
2013-06-10 20:03:00,87.1,30.3,25.45,ESE,112,15.2,17.2,13,0.00,,---,0.00,VWS V14.01,2013-06-11 01:03:00,
2013-06-10 20:08:00,86.5,29.9,25.45,East,90,10.5,17.2,13,0.00,,---,0.00,VWS V14.01,2013-06-11 01:08:00,
2013-06-10 20:13:00,86.2,29.6,25.45,ENE,68,10.7,12.1,13,0.00,,---,0.00,VWS V14.01,2013-06-11 01:13:00,
2013-06-10 20:18:00,85.6,29.2,25.48,ESE,112,13.0,13.0,13,0.00,,---,0.00,VWS V14.01,2013-06-11 01:18:00,
2013-06-10 20:23:00,85.3,28.9,25.48,ESE,112,12.3,15.2,13,0.00,,---,0.00,VWS V14.01,2013-06-11 01:23:00,
2013-06-10 20:28:00,84.7,28.5,25.48,ESE,112,13.6,14.1,13,0.00,,---,0.00,VWS V14.01,2013-06-11 01:28:00,
2013-06-10 20:37:00,84.0,29.8,25.48,ESE,112,15.4,15.4,14,0.00,,---,0.00,VWS V14.01,2013-06-11 01:37:00,
2013-06-10 20:42:00,83.5,29.3,25.48,East,90,12.1,12.1,14,0.00,,---,0.00,VWS V14.01,2013-06-11 01:42:00,
2013-06-10 20:47:00,82.6,28.6,25.48,ESE,112,11.0,12.3,14,0.00,,---,0.00,VWS V14.01,2013-06-11 01:47:00,
2013-06-10 20:52:00,82.0,33.0,25.48,ESE,112,17.0,17.0,17,0.00,,---,0.00,VWS V14.01,2013-06-11 01:52:00,
2013-06-10 20:57:00,81.3,32.4,25.48,ESE,112,17.5,17.5,17,0.00,,---,0.00,VWS V14.01,2013-06-11 01:57:00,
2013-06-10 21:02:00,80.8,32.0,25.48,ESE,112,12.8,12.8,17,0.00,,---,0.00,VWS V14.01,2013-06-11 02:02:00,
2013-06-10 21:07:00,80.2,35.6,25.48,ESE,112,16.6,16.6,20,0.00,,---,0.00,VWS V14.01,2013-06-11 02:07:00,
2013-06-10 21:12:00,79.9,35.3,25.48,ESE,112,13.0,13.0,20,0.00,,---,0.00,VWS V14.01,2013-06-11 02:12:00,
2013-06-10 21:17:00,79.5,35.0,25.48,ESE,112,12.5,12.8,20,0.00,,---,0.00,VWS V14.01,2013-06-11 02:17:00,
2013-06-10 21:22:00,79.2,35.9,25.48,East,90,15.2,17.7,21,0.00,,---,0.00,VWS V14.01,2013-06-11 02:22:00,
2013-06-10 21:27:00,78.8,35.6,25.48,ESE,112,12.8,13.2,21,0.00,,---,0.00,VWS V14.01,2013-06-11 02:27:00,
2013-06-10 21:32:00,78.4,35.3,25.45,ESE,112,22.4,22.4,21,0.00,,---,0.00,VWS V14.01,2013-06-11 02:32:00,
2013-06-10 21:37:00,78.3,35.2,25.45,ESE,112,17.9,17.9,21,0.00,,---,0.00,VWS V14.01,2013-06-11 02:37:00,
2013-06-10 21:42:00,78.1,35.0,25.45,ESE,112,13.2,13.2,21,0.00,,---,0.00,VWS V14.01,2013-06-11 02:42:00,
2013-06-10 21:47:00,77.9,34.9,25.48,ESE,112,12.8,12.8,21,0.00,,---,0.00,VWS V14.01,2013-06-11 02:47:00,
2013-06-10 21:52:00,77.7,34.7,25.48,ESE,112,19.7,19.7,21,0.00,,---,0.00,VWS V14.01,2013-06-11 02:52:00,
2013-06-10 21:57:00,77.5,34.6,25.48,ESE,112,19.7,19.7,21,0.00,,---,0.00,VWS V14.01,2013-06-11 02:57:00,
2013-06-10 22:02:00,77.2,35.4,25.45,ESE,112,15.7,15.7,22,0.00,,---,0.00,VWS V14.01,2013-06-11 03:02:00,
2013-06-10 22:07:00,77.0,35.3,25.45,ESE,112,11.0,16.1,22,0.00,,---,0.00,VWS V14.01,2013-06-11 03:07:00,
2013-06-10 22:12:00,76.8,37.3,25.45,ESE,112,13.2,17.7,24,0.00,,---,0.00,VWS V14.01,2013-06-11 03:12:00,
2013-06-10 22:17:00,76.6,39.2,25.48,ESE,112,15.9,15.9,26,0.00,,---,0.00,VWS V14.01,2013-06-11 03:17:00,
2013-06-10 22:22:00,76.3,40.8,25.48,ESE,112,12.5,14.1,28,0.00,,---,0.00,VWS V14.01,2013-06-11 03:22:00,
2013-06-10 22:27:00,76.1,41.6,25.48,ESE,112,17.2,22.8,29,0.00,,---,0.00,VWS V14.01,2013-06-11 03:27:00,
2013-06-10 22:32:00,75.7,43.0,25.48,ESE,112,13.2,17.5,31,0.00,,---,0.00,VWS V14.01,2013-06-11 03:32:00,
2013-06-10 22:37:00,75.6,42.8,25.48,ESE,112,10.5,13.0,31,0.00,,---,0.00,VWS V14.01,2013-06-11 03:37:00,
2013-06-10 22:42:00,75.2,43.3,25.48,ESE,112,15.2,17.5,32,0.00,,---,0.00,VWS V14.01,2013-06-11 03:42:00,
2013-06-10 22:47:00,75.2,44.2,25.48,ESE,112,9.8,9.8,33,0.00,,---,0.00,VWS V14.01,2013-06-11 03:47:00,
2013-06-10 22:52:00,75.0,44.8,25.48,ESE,112,25.5,25.5,34,0.00,,---,0.00,VWS V14.01,2013-06-11 03:52:00,
2013-06-10 22:57:00,74.8,44.6,25.48,SE,135,17.2,17.2,34,0.00,,---,0.00,VWS V14.01,2013-06-11 03:57:00,
2013-06-10 23:01:00,74.5,44.3,25.48,ESE,112,15.2,17.5,34,0.00,,---,0.00,VWS V14.01,2013-06-11 04:01:00,
2013-06-10 23:06:00,74.3,44.9,25.48,SE,135,17.2,17.2,35,0.00,,---,0.00,VWS V14.01,2013-06-11 04:06:00,
2013-06-10 23:11:00,74.1,44.8,25.48,SE,135,16.8,16.8,35,0.00,,---,0.00,VWS V14.01,2013-06-11 04:11:00,
2013-06-10 23:16:00,73.9,44.6,25.45,SE,135,13.2,13.2,35,0.00,,---,0.00,VWS V14.01,2013-06-11 04:16:00,
2013-06-10 23:21:00,73.8,45.2,25.45,ESE,112,13.9,17.7,36,0.00,,---,0.00,VWS V14.01,2013-06-11 04:21:00,
2013-06-10 23:26:00,73.6,45.0,25.45,ESE,112,17.0,18.8,36,0.00,,---,0.00,VWS V14.01,2013-06-11 04:26:00,
2013-06-10 23:31:00,73.4,44.8,25.48,ESE,112,14.5,17.7,36,0.00,,---,0.00,VWS V14.01,2013-06-11 04:31:00,
2013-06-10 23:37:00,73.0,46.0,25.48,ESE,112,13.2,17.2,38,0.00,,---,0.00,VWS V14.01,2013-06-11 04:37:00,
2013-06-10 23:42:00,72.9,45.8,25.48,ESE,112,13.0,14.8,38,0.00,,---,0.00,VWS V14.01,2013-06-11 04:42:00,
2013-06-10 23:47:00,72.7,46.3,25.48,ESE,112,15.4,18.8,39,0.00,,---,0.00,VWS V14.01,2013-06-11 04:47:00,
2013-06-10 23:52:00,72.5,46.8,25.48,ESE,112,15.4,15.4,40,0.00,,---,0.00,VWS V14.01,2013-06-11 04:52:00,
2013-06-10 23:57:00,72.3,46.7,25.48,ESE,112,14.8,16.3,40,0.00,,---,0.00,VWS V14.01,2013-06-11 04:57:00,